sat.trackr.live / text

‹ back to catalog

STARLINK-5421

NORAD 54799 · 2022-175AT

PAYLOAD ACTIVE UNKNOWN

§ Identity

Operator
Country
US
Launch date
2022-12-17
Launch site
AFETR
Launch vehicle
Mass (kg)
RCS (m²)

Purposes: comms

External: N2YO · Heavens-Above · Gunter

§ Orbital elements

Epoch: 2026-09-20T12:21:38.595456Z

Period
93.79 min
Inclination
53.1592°
Eccentricity
0.0001646
Mean motion
15.35417306 rev/d
Perigee alt
458.6 km
Apogee alt
460.8 km
Semi-major
6,837.8 km
B*
5.0125e-4
RAAN
217.4407°
Arg perigee
65.3763°
Mean anomaly
294.7411°
Rev number
20,977

§ Raw data

STARLINK-54211 54799U 22175AT  26263.51503004  .00017153  00000+0  50125-3 0  99902 54799  53.1592 217.4407 0001646  65.3763 294.7411 15.35417306209771

JSON: /api/v1/satellites/54799 · /tle

For live sub-satellite position, see the globe view (requires WebGL).

§ Visibility from observer

Set your observer location to see the next 7 days of passes ≥ 10°. The values pass through the URL so the page stays shareable.

No JS? Fill the form by hand. The geolocation button needs JavaScript.